Time,TemperatureF,DewpointF,PressureIn,WindDirection,WindDirectionDegrees,WindSpeedMPH,WindSpeedGustMPH,Humidity,HourlyPrecipIn,Conditions,Clouds,dailyrainin,SoftwareType,DateUTC
2013-12-12 00:01:00,-3.8,-10.0,30.58,SW,223,0.0,2.0,75,0.00,,,0.00,weatherlink.com 1.10,2013-12-12 06:01:00,
2013-12-12 00:17:00,-4.3,-10.0,30.57,SW,223,0.0,2.0,76,0.00,,,0.00,weatherlink.com 1.10,2013-12-12 06:17:00,
2013-12-12 00:32:00,-4.6,-10.0,30.56,SW,223,0.0,1.0,77,0.00,,,0.00,weatherlink.com 1.10,2013-12-12 06:32:00,
2013-12-12 00:47:00,-4.8,-10.0,30.56,SW,223,0.0,1.0,78,0.00,,,0.00,weatherlink.com 1.10,2013-12-12 06:47:00,
2013-12-12 01:02:00,-5.0,-10.0,30.56,SW,223,0.0,2.0,79,0.00,,,0.00,weatherlink.com 1.10,2013-12-12 07:02:00,
2013-12-12 01:17:00,-5.1,-10.0,30.55,SW,223,3.0,3.0,80,0.00,,,0.00,weatherlink.com 1.10,2013-12-12 07:17:00,
2013-12-12 01:32:00,-4.7,-9.0,30.55,SW,226,0.0,3.0,80,0.00,,,0.00,weatherlink.com 1.10,2013-12-12 07:32:00,
2013-12-12 01:47:00,-4.8,-10.0,30.55,SW,228,0.0,2.0,79,0.00,,,0.00,weatherlink.com 1.10,2013-12-12 07:47:00,
2013-12-12 02:02:00,-5.1,-10.0,30.54,SW,228,0.0,0.0,80,0.00,,,0.00,weatherlink.com 1.10,2013-12-12 08:02:00,
2013-12-12 02:17:00,-5.2,-10.0,30.54,SW,228,0.0,2.0,81,0.00,,,0.00,weatherlink.com 1.10,2013-12-12 08:17:00,
2013-12-12 02:32:00,-5.1,-10.0,30.54,SW,228,1.0,1.0,81,0.00,,,0.00,weatherlink.com 1.10,2013-12-12 08:32:00,
2013-12-12 02:47:00,-4.9,-9.0,30.53,SW,228,0.0,3.0,82,0.00,,,0.00,weatherlink.com 1.10,2013-12-12 08:47:00,
2013-12-12 03:02:00,-4.6,-9.0,30.52,SW,228,0.0,2.0,82,0.00,,,0.00,weatherlink.com 1.10,2013-12-12 09:02:00,
2013-12-12 03:17:00,-4.2,-8.0,30.52,SW,228,0.0,3.0,82,0.00,,,0.00,weatherlink.com 1.10,2013-12-12 09:17:00,
2013-12-12 03:32:00,-4.0,-9.0,30.51,SW,225,1.0,3.0,80,0.00,,,0.00,weatherlink.com 1.10,2013-12-12 09:32:00,
2013-12-12 03:48:00,-3.7,-8.0,30.50,SW,231,2.0,4.0,80,0.00,,,0.00,weatherlink.com 1.10,2013-12-12 09:48:00,
2013-12-12 04:03:00,-3.2,-8.0,30.49,SW,227,1.0,4.0,79,0.00,,,0.00,weatherlink.com 1.10,2013-12-12 10:03:00,
2013-12-12 04:18:00,-2.9,-8.0,30.49,SSW,213,1.0,4.0,78,0.00,,,0.00,weatherlink.com 1.10,2013-12-12 10:18:00,
2013-12-12 04:33:00,-2.6,-8.0,30.49,SW,227,1.0,5.0,77,0.00,,,0.00,weatherlink.com 1.10,2013-12-12 10:33:00,
2013-12-12 04:48:00,-2.3,-8.0,30.48,SW,219,0.0,4.0,78,0.00,,,0.00,weatherlink.com 1.10,2013-12-12 10:48:00,
2013-12-12 05:03:00,-2.0,-8.0,30.47,SW,219,1.0,4.0,77,0.00,,,0.00,weatherlink.com 1.10,2013-12-12 11:03:00,
2013-12-12 05:18:00,-1.7,-7.0,30.46,SW,221,2.0,5.0,77,0.00,,,0.00,weatherlink.com 1.10,2013-12-12 11:18:00,
2013-12-12 05:33:00,-1.2,-7.0,30.45,SSW,213,0.0,6.0,78,0.00,,,0.00,weatherlink.com 1.10,2013-12-12 11:33:00,
2013-12-12 05:48:00,-0.5,-6.0,30.44,SSW,196,5.0,5.0,78,0.00,,,0.00,weatherlink.com 1.10,2013-12-12 11:48:00,
2013-12-12 06:03:00,0.2,-5.0,30.43,SSW,209,3.0,6.0,78,0.00,,,0.00,weatherlink.com 1.10,2013-12-12 12:03:00,
2013-12-12 06:18:00,0.8,-5.0,30.42,SW,219,2.0,4.0,78,0.00,,,0.00,weatherlink.com 1.10,2013-12-12 12:18:00,
2013-12-12 06:33:00,1.7,-4.0,30.40,SSW,192,2.0,6.0,77,0.00,,,0.00,weatherlink.com 1.10,2013-12-12 12:33:00,
2013-12-12 06:48:00,2.2,-4.0,30.39,South,188,2.0,6.0,75,0.00,,,0.00,weatherlink.com 1.10,2013-12-12 12:48:00,
2013-12-12 07:04:00,3.0,-4.0,30.38,SSW,207,5.0,7.0,74,0.00,,,0.00,weatherlink.com 1.10,2013-12-12 13:04:00,
2013-12-12 07:19:00,3.4,-3.0,30.39,SW,215,2.0,5.0,74,0.00,,,0.00,weatherlink.com 1.10,2013-12-12 13:19:00,
2013-12-12 07:34:00,3.1,-3.0,30.40,SSW,197,0.0,7.0,74,0.00,,,0.00,weatherlink.com 1.10,2013-12-12 13:34:00,
2013-12-12 07:49:00,3.1,-3.0,30.40,SW,221,2.0,5.0,75,0.00,,,0.00,weatherlink.com 1.10,2013-12-12 13:49:00,
2013-12-12 08:04:00,3.6,-3.0,30.40,SSW,209,1.0,6.0,74,0.00,,,0.00,weatherlink.com 1.10,2013-12-12 14:04:00,
2013-12-12 08:19:00,3.9,-3.0,30.40,South,184,2.0,7.0,74,0.00,,,0.00,weatherlink.com 1.10,2013-12-12 14:19:00,
2013-12-12 08:34:00,4.0,-3.0,30.40,SW,229,3.0,7.0,74,0.00,,,0.00,weatherlink.com 1.10,2013-12-12 14:34:00,
2013-12-12 08:49:00,4.3,-2.0,30.40,SW,219,1.0,8.0,75,0.00,,,0.00,weatherlink.com 1.10,2013-12-12 14:49:00,
2013-12-12 09:04:00,4.9,-1.0,30.40,SW,214,1.0,6.0,75,0.00,,,0.00,weatherlink.com 1.10,2013-12-12 15:04:00,
2013-12-12 09:19:00,5.8,-1.0,30.40,SW,221,0.0,8.0,73,0.00,,,0.00,weatherlink.com 1.10,2013-12-12 15:19:00,
2013-12-12 09:34:00,6.8,-1.0,30.39,SSW,212,5.0,7.0,72,0.00,,,0.00,weatherlink.com 1.10,2013-12-12 15:34:00,
2013-12-12 09:49:00,7.4,-1.0,30.40,NW,307,1.0,10.0,70,0.00,,,0.00,weatherlink.com 1.10,2013-12-12 15:49:00,
2013-12-12 10:04:00,7.8,0.0,30.40,West,277,0.0,7.0,70,0.00,,,0.00,weatherlink.com 1.10,2013-12-12 16:04:00,
2013-12-12 10:20:00,8.9,1.0,30.40,WSW,253,5.0,5.0,70,0.00,,,0.00,weatherlink.com 1.10,2013-12-12 16:20:00,
2013-12-12 10:35:00,9.2,1.0,30.41,SW,221,3.0,7.0,69,0.00,,,0.00,weatherlink.com 1.10,2013-12-12 16:35:00,
2013-12-12 10:50:00,9.9,2.0,30.40,WSW,238,3.0,11.0,69,0.00,,,0.00,weatherlink.com 1.10,2013-12-12 16:50:00,
2013-12-12 11:05:00,10.6,2.0,30.40,WSW,251,0.0,7.0,68,0.00,,,0.00,weatherlink.com 1.10,2013-12-12 17:05:00,
2013-12-12 11:20:00,10.7,2.0,30.39,WSW,242,1.0,7.0,68,0.00,,,0.00,weatherlink.com 1.10,2013-12-12 17:20:00,
2013-12-12 11:35:00,10.7,2.0,30.38,South,185,0.0,7.0,68,0.00,,,0.00,weatherlink.com 1.10,2013-12-12 17:35:00,
2013-12-12 11:50:00,11.3,3.0,30.38,SE,136,1.0,5.0,69,0.00,,,0.00,weatherlink.com 1.10,2013-12-12 17:50:00,
2013-12-12 12:05:00,12.0,3.0,30.38,West,269,0.0,5.0,68,0.00,,,0.00,weatherlink.com 1.10,2013-12-12 18:05:00,
2013-12-12 12:20:00,12.6,4.0,30.36,WSW,244,0.0,6.0,67,0.00,,,0.00,weatherlink.com 1.10,2013-12-12 18:20:00,
2013-12-12 12:35:00,12.7,4.0,30.36,SW,228,0.0,4.0,68,0.00,,,0.00,weatherlink.com 1.10,2013-12-12 18:35:00,
2013-12-12 12:50:00,13.2,4.0,30.36,SW,220,3.0,6.0,67,0.00,,,0.00,weatherlink.com 1.10,2013-12-12 18:50:00,
2013-12-12 13:05:00,13.6,5.0,30.35,SW,217,1.0,5.0,67,0.00,,,0.00,weatherlink.com 1.10,2013-12-12 19:05:00,
2013-12-12 13:20:00,14.1,5.0,30.34,SW,220,4.0,7.0,67,0.00,,,0.00,weatherlink.com 1.10,2013-12-12 19:20:00,
2013-12-12 13:35:00,14.6,5.0,30.34,WSW,243,2.0,6.0,67,0.00,,,0.00,weatherlink.com 1.10,2013-12-12 19:35:00,
2013-12-12 13:51:00,15.0,6.0,30.34,SW,219,3.0,7.0,68,0.00,,,0.00,weatherlink.com 1.10,2013-12-12 19:51:00,
2013-12-12 14:06:00,14.8,6.0,30.34,SW,215,3.0,5.0,67,0.00,,,0.00,weatherlink.com 1.10,2013-12-12 20:06:00,
2013-12-12 14:21:00,14.4,5.0,30.34,SW,217,0.0,7.0,67,0.00,,,0.00,weatherlink.com 1.10,2013-12-12 20:21:00,
2013-12-12 14:36:00,14.3,5.0,30.34,SSW,196,5.0,8.0,67,0.00,,,0.00,weatherlink.com 1.10,2013-12-12 20:36:00,
2013-12-12 14:51:00,14.1,6.0,30.34,WSW,250,1.0,5.0,69,0.00,,,0.00,weatherlink.com 1.10,2013-12-12 20:51:00,
2013-12-12 15:06:00,14.0,6.0,30.33,SW,224,2.0,6.0,69,0.00,,,0.00,weatherlink.com 1.10,2013-12-12 21:06:00,
2013-12-12 15:21:00,13.9,6.0,30.33,SW,218,0.0,3.0,70,0.00,,,0.00,weatherlink.com 1.10,2013-12-12 21:21:00,
2013-12-12 15:36:00,14.0,6.0,30.33,SW,227,2.0,3.0,70,0.00,,,0.00,weatherlink.com 1.10,2013-12-12 21:36:00,
2013-12-12 15:51:00,13.6,6.0,30.33,SSW,211,1.0,5.0,71,0.00,,,0.00,weatherlink.com 1.10,2013-12-12 21:51:00,
2013-12-12 16:06:00,13.1,6.0,30.33,SW,214,1.0,4.0,73,0.00,,,0.00,weatherlink.com 1.10,2013-12-12 22:06:00,
2013-12-12 16:21:00,12.7,6.0,30.33,SW,214,0.0,3.0,74,0.00,,,0.00,weatherlink.com 1.10,2013-12-12 22:21:00,
2013-12-12 16:36:00,12.4,6.0,30.34,SW,214,1.0,3.0,75,0.00,,,0.00,weatherlink.com 1.10,2013-12-12 22:36:00,
2013-12-12 16:51:00,12.0,6.0,30.33,SW,214,0.0,1.0,76,0.00,,,0.00,weatherlink.com 1.10,2013-12-12 22:51:00,
2013-12-12 17:07:00,11.8,6.0,30.33,SW,214,0.0,3.0,76,0.00,,,0.00,weatherlink.com 1.10,2013-12-12 23:07:00,
2013-12-12 17:22:00,11.4,6.0,30.33,SW,214,0.0,3.0,77,0.00,,,0.00,weatherlink.com 1.10,2013-12-12 23:22:00,
2013-12-12 17:37:00,11.3,6.0,30.32,SW,214,0.0,2.0,78,0.00,,,0.00,weatherlink.com 1.10,2013-12-12 23:37:00,
2013-12-12 17:52:00,11.5,6.0,30.33,SW,214,0.0,2.0,79,0.00,,,0.00,weatherlink.com 1.10,2013-12-12 23:52:00,
2013-12-12 18:07:00,12.2,7.0,30.33,SW,217,0.0,3.0,78,0.00,,,0.00,weatherlink.com 1.10,2013-12-13 00:07:00,
2013-12-12 18:22:00,12.6,7.0,30.33,SW,219,1.0,3.0,78,0.00,,,0.00,weatherlink.com 1.10,2013-12-13 00:22:00,
2013-12-12 18:37:00,13.0,7.0,30.33,SW,217,0.0,5.0,78,0.00,,,0.00,weatherlink.com 1.10,2013-12-13 00:37:00,
2013-12-12 18:52:00,13.2,8.0,30.32,SSW,211,0.0,3.0,78,0.00,,,0.00,weatherlink.com 1.10,2013-12-13 00:52:00,
2013-12-12 19:07:00,13.2,8.0,30.33,SSW,211,0.0,3.0,78,0.00,,,0.00,weatherlink.com 1.10,2013-12-13 01:07:00,
2013-12-12 19:22:00,13.4,8.0,30.32,SSW,211,3.0,3.0,78,0.00,,,0.00,weatherlink.com 1.10,2013-12-13 01:22:00,
2013-12-12 19:37:00,13.4,8.0,30.32,SW,219,2.0,4.0,78,0.00,,,0.00,weatherlink.com 1.10,2013-12-13 01:37:00,
2013-12-12 19:52:00,13.2,8.0,30.32,SW,219,2.0,3.0,78,0.00,,,0.00,weatherlink.com 1.10,2013-12-13 01:52:00,
2013-12-12 20:07:00,13.1,7.0,30.31,SSW,205,1.0,5.0,78,0.00,,,0.00,weatherlink.com 1.10,2013-12-13 02:07:00,
2013-12-12 20:22:00,13.0,8.0,30.31,SW,216,1.0,4.0,79,0.00,,,0.00,weatherlink.com 1.10,2013-12-13 02:22:00,
2013-12-12 20:38:00,13.0,8.0,30.31,SW,221,0.0,5.0,79,0.00,,,0.00,weatherlink.com 1.10,2013-12-13 02:38:00,
2013-12-12 20:53:00,13.1,8.0,30.30,SW,232,1.0,4.0,80,0.00,,,0.00,weatherlink.com 1.10,2013-12-13 02:53:00,
2013-12-12 21:08:00,13.2,8.0,30.30,WSW,241,1.0,5.0,79,0.00,,,0.00,weatherlink.com 1.10,2013-12-13 03:08:00,
2013-12-12 21:23:00,13.3,8.0,30.29,SW,218,0.0,4.0,80,0.00,,,0.00,weatherlink.com 1.10,2013-12-13 03:23:00,
2013-12-12 21:38:00,13.5,8.0,30.29,SSW,211,0.0,5.0,80,0.00,,,0.00,weatherlink.com 1.10,2013-12-13 03:38:00,
2013-12-12 21:53:00,13.5,8.0,30.28,SSW,211,0.0,4.0,80,0.00,,,0.00,weatherlink.com 1.10,2013-12-13 03:53:00,
2013-12-12 22:08:00,13.5,8.0,30.28,SSW,213,1.0,6.0,80,0.00,,,0.00,weatherlink.com 1.10,2013-12-13 04:08:00,
2013-12-12 22:23:00,13.6,9.0,30.28,SSW,211,0.0,4.0,80,0.00,,,0.00,weatherlink.com 1.10,2013-12-13 04:23:00,
2013-12-12 22:38:00,13.5,8.0,30.28,SW,219,0.0,3.0,80,0.00,,,0.00,weatherlink.com 1.10,2013-12-13 04:38:00,
2013-12-12 22:53:00,13.5,8.0,30.27,SW,222,1.0,3.0,80,0.00,,,0.00,weatherlink.com 1.10,2013-12-13 04:53:00,
2013-12-12 23:08:00,13.6,9.0,30.26,SW,225,0.0,1.0,81,0.00,,,0.00,weatherlink.com 1.10,2013-12-13 05:08:00,
2013-12-12 23:23:00,13.7,9.0,30.26,SSW,213,0.0,3.0,81,0.00,,,0.00,weatherlink.com 1.10,2013-12-13 05:23:00,
2013-12-12 23:38:00,13.8,9.0,30.26,SSW,213,0.0,1.0,81,0.00,,,0.00,weatherlink.com 1.10,2013-12-13 05:38:00,
2013-12-12 23:54:00,13.9,9.0,30.26,SSW,213,0.0,2.0,82,0.00,,,0.00,weatherlink.com 1.10,2013-12-13 05:54:00,